﻿測定場所 (Monitoring sites),日付 (Measurement date),時間 (Measurement time),線量率 最大値 (max) μGy/h,線量率 最小値 (min) μGy/h,線量率 平均値 (average) μGy/h,
新宿 (Shinjuku),2011-11-06,23:00～23:59,0.0602,0.0534,0.0569,
新宿 (Shinjuku),2011-11-06,22:00～22:59,0.0617,0.0554,0.0580,
新宿 (Shinjuku),2011-11-06,21:00～21:59,0.0603,0.0545,0.0578,
新宿 (Shinjuku),2011-11-06,20:00～20:59,0.0603,0.0553,0.0575,
新宿 (Shinjuku),2011-11-06,19:00～19:59,0.0603,0.0549,0.0575,
新宿 (Shinjuku),2011-11-06,18:00～18:59,0.0603,0.0548,0.0569,
新宿 (Shinjuku),2011-11-06,17:00～17:59,0.0589,0.0539,0.0564,
新宿 (Shinjuku),2011-11-06,16:00～16:59,0.0593,0.0524,0.0560,
新宿 (Shinjuku),2011-11-06,15:00～15:59,0.0593,0.0535,0.0560,
新宿 (Shinjuku),2011-11-06,14:00～14:59,0.0596,0.0539,0.0567,
新宿 (Shinjuku),2011-11-06,13:00～13:59,0.0593,0.0533,0.0560,
新宿 (Shinjuku),2011-11-06,12:00～12:59,0.0585,0.0536,0.0561,
新宿 (Shinjuku),2011-11-06,11:00～11:59,0.0589,0.0534,0.0562,
新宿 (Shinjuku),2011-11-06,10:00～10:59,0.0594,0.0534,0.0559,
新宿 (Shinjuku),2011-11-06,09:00～09:59,0.0576,0.0530,0.0556,
新宿 (Shinjuku),2011-11-06,08:00～08:59,0.0578,0.0528,0.0553,
新宿 (Shinjuku),2011-11-06,07:00～07:59,0.0568,0.0524,0.0552,
新宿 (Shinjuku),2011-11-06,06:00～06:59,0.0580,0.0535,0.0558,
新宿 (Shinjuku),2011-11-06,05:00～05:59,0.0578,0.0541,0.0559,
新宿 (Shinjuku),2011-11-06,04:00～04:59,0.0605,0.0539,0.0569,
新宿 (Shinjuku),2011-11-06,03:00～03:59,0.0596,0.0541,0.0568,
新宿 (Shinjuku),2011-11-06,02:00～02:59,0.0593,0.0533,0.0569,
新宿 (Shinjuku),2011-11-06,01:00～01:59,0.0589,0.0543,0.0568,
新宿 (Shinjuku),2011-11-06,00:00～00:59,0.0583,0.0536,0.0561,
新宿 (Shinjuku),2011-11-05,23:00～23:59,0.0580,0.0528,0.0555,
新宿 (Shinjuku),2011-11-05,22:00～22:59,0.0584,0.0533,0.0560,
新宿 (Shinjuku),2011-11-05,21:00～21:59,0.0584,0.0537,0.0562,
新宿 (Shinjuku),2011-11-05,20:00～20:59,0.0590,0.0544,0.0564,
新宿 (Shinjuku),2011-11-05,19:00～19:59,0.0582,0.0530,0.0558,
新宿 (Shinjuku),2011-11-05,18:00～18:59,0.0586,0.0521,0.0556,
新宿 (Shinjuku),2011-11-05,17:00～17:59,0.0589,0.0532,0.0556,
新宿 (Shinjuku),2011-11-05,16:00～16:59,0.0586,0.0533,0.0557,
新宿 (Shinjuku),2011-11-05,15:00～15:59,0.0572,0.0527,0.0550,
新宿 (Shinjuku),2011-11-05,14:00～14:59,0.0569,0.0520,0.0548,
新宿 (Shinjuku),2011-11-05,13:00～13:59,0.0572,0.0528,0.0549,
新宿 (Shinjuku),2011-11-05,12:00～12:59,0.0569,0.0521,0.0551,
新宿 (Shinjuku),2011-11-05,11:00～11:59,0.0582,0.0524,0.0553,
新宿 (Shinjuku),2011-11-05,10:00～10:59,0.0585,0.0531,0.0556,
新宿 (Shinjuku),2011-11-05,09:00～09:59,0.0593,0.0534,0.0564,
新宿 (Shinjuku),2011-11-05,08:00～08:59,0.0586,0.0528,0.0560,
新宿 (Shinjuku),2011-11-05,07:00～07:59,0.0585,0.0530,0.0562,
新宿 (Shinjuku),2011-11-05,06:00～06:59,0.0583,0.0534,0.0555,
新宿 (Shinjuku),2011-11-05,05:00～05:59,0.0579,0.0524,0.0559,
新宿 (Shinjuku),2011-11-05,04:00～04:59,0.0586,0.0520,0.0557,
新宿 (Shinjuku),2011-11-05,03:00～03:59,0.0579,0.0530,0.0558,
新宿 (Shinjuku),2011-11-05,02:00～02:59,0.0586,0.0528,0.0555,
新宿 (Shinjuku),2011-11-05,01:00～01:59,0.0572,0.0517,0.0549,
新宿 (Shinjuku),2011-11-05,00:00～00:59,0.0567,0.0525,0.0547,
新宿 (Shinjuku),2011-11-04,23:00～23:59,0.0579,0.0521,0.0547,
新宿 (Shinjuku),2011-11-04,22:00～22:59,0.0570,0.0520,0.0544,
新宿 (Shinjuku),2011-11-04,21:00～21:59,0.0575,0.0523,0.0547,
新宿 (Shinjuku),2011-11-04,20:00～20:59,0.0575,0.0513,0.0545,
新宿 (Shinjuku),2011-11-04,19:00～19:59,0.0574,0.0515,0.0541,
新宿 (Shinjuku),2011-11-04,18:00～18:59,0.0567,0.0527,0.0544,
新宿 (Shinjuku),2011-11-04,17:00～17:59,0.0579,0.0515,0.0547,
新宿 (Shinjuku),2011-11-04,16:00～16:59,0.0572,0.0523,0.0546,
新宿 (Shinjuku),2011-11-04,15:00～15:59,0.0583,0.0523,0.0547,
新宿 (Shinjuku),2011-11-04,14:00～14:59,0.0572,0.0523,0.0549,
新宿 (Shinjuku),2011-11-04,13:00～13:59,0.0571,0.0528,0.0549,
新宿 (Shinjuku),2011-11-04,12:00～12:59,0.0579,0.0523,0.0553,
新宿 (Shinjuku),2011-11-04,11:00～11:59,0.0582,0.0530,0.0557,
新宿 (Shinjuku),2011-11-04,10:00～10:59,0.0584,0.0535,0.0562,
新宿 (Shinjuku),2011-11-04,09:00～09:59,0.0593,0.0530,0.0564,
新宿 (Shinjuku),2011-11-04,08:00～08:59,0.0596,0.0547,0.0568,
新宿 (Shinjuku),2011-11-04,07:00～07:59,0.0593,0.0544,0.0570,
新宿 (Shinjuku),2011-11-04,06:00～06:59,0.0598,0.0541,0.0567,
新宿 (Shinjuku),2011-11-04,05:00～05:59,0.0585,0.0534,0.0564,
新宿 (Shinjuku),2011-11-04,04:00～04:59,0.0596,0.0537,0.0569,
新宿 (Shinjuku),2011-11-04,03:00～03:59,0.0599,0.0544,0.0567,
新宿 (Shinjuku),2011-11-04,02:00～02:59,0.0591,0.0541,0.0565,
新宿 (Shinjuku),2011-11-04,01:00～01:59,0.0605,0.0537,0.0567,
新宿 (Shinjuku),2011-11-04,00:00～00:59,0.0595,0.0543,0.0569,
新宿 (Shinjuku),2011-11-03,23:00～23:59,0.0585,0.0532,0.0564,
新宿 (Shinjuku),2011-11-03,22:00～22:59,0.0586,0.0538,0.0562,
新宿 (Shinjuku),2011-11-03,21:00～21:59,0.0589,0.0535,0.0561,
新宿 (Shinjuku),2011-11-03,20:00～20:59,0.0596,0.0534,0.0562,
新宿 (Shinjuku),2011-11-03,19:00～19:59,0.0582,0.0534,0.0558,
新宿 (Shinjuku),2011-11-03,18:00～18:59,0.0590,0.0538,0.0563,
新宿 (Shinjuku),2011-11-03,17:00～17:59,0.0580,0.0530,0.0558,
新宿 (Shinjuku),2011-11-03,16:00～16:59,0.0580,0.0534,0.0555,
新宿 (Shinjuku),2011-11-03,15:00～15:59,0.0585,0.0530,0.0557,
新宿 (Shinjuku),2011-11-03,14:00～14:59,0.0575,0.0531,0.0557,
新宿 (Shinjuku),2011-11-03,13:00～13:59,0.0580,0.0535,0.0557,
新宿 (Shinjuku),2011-11-03,12:00～12:59,0.0586,0.0530,0.0556,
新宿 (Shinjuku),2011-11-03,11:00～11:59,0.0577,0.0525,0.0558,
新宿 (Shinjuku),2011-11-03,10:00～10:59,0.0595,0.0535,0.0564,
新宿 (Shinjuku),2011-11-03,09:00～09:59,0.0585,0.0548,0.0565,
新宿 (Shinjuku),2011-11-03,08:00～08:59,0.0588,0.0540,0.0564,
新宿 (Shinjuku),2011-11-03,07:00～07:59,0.0586,0.0526,0.0561,
新宿 (Shinjuku),2011-11-03,06:00～06:59,0.0579,0.0534,0.0557,
新宿 (Shinjuku),2011-11-03,05:00～05:59,0.0584,0.0530,0.0555,
新宿 (Shinjuku),2011-11-03,04:00～04:59,0.0576,0.0532,0.0555,
新宿 (Shinjuku),2011-11-03,03:00～03:59,0.0595,0.0530,0.0560,
新宿 (Shinjuku),2011-11-03,02:00～02:59,0.0580,0.0537,0.0557,
新宿 (Shinjuku),2011-11-03,01:00～01:59,0.0579,0.0529,0.0554,
新宿 (Shinjuku),2011-11-03,00:00～00:59,0.0583,0.0528,0.0552,
新宿 (Shinjuku),2011-11-02,23:00～23:59,0.0569,0.0528,0.0552,
新宿 (Shinjuku),2011-11-02,22:00～22:59,0.0571,0.0523,0.0546,
新宿 (Shinjuku),2011-11-02,21:00～21:59,0.0575,0.0512,0.0544,
新宿 (Shinjuku),2011-11-02,20:00～20:59,0.0565,0.0516,0.0543,
新宿 (Shinjuku),2011-11-02,19:00～19:59,0.0575,0.0513,0.0546,
新宿 (Shinjuku),2011-11-02,18:00～18:59,0.0568,0.0520,0.0544,
新宿 (Shinjuku),2011-11-02,17:00～17:59,0.0569,0.0512,0.0538,
新宿 (Shinjuku),2011-11-02,16:00～16:59,0.0563,0.0516,0.0543,
新宿 (Shinjuku),2011-11-02,15:00～15:59,0.0571,0.0519,0.0540,
新宿 (Shinjuku),2011-11-02,14:00～14:59,0.0564,0.0523,0.0543,
新宿 (Shinjuku),2011-11-02,13:00～13:59,0.0569,0.0524,0.0547,
新宿 (Shinjuku),2011-11-02,12:00～12:59,0.0581,0.0518,0.0549,
新宿 (Shinjuku),2011-11-02,11:00～11:59,0.0583,0.0538,0.0557,
新宿 (Shinjuku),2011-11-02,10:00～10:59,0.0584,0.0526,0.0557,
新宿 (Shinjuku),2011-11-02,09:00～09:59,0.0593,0.0529,0.0557,
新宿 (Shinjuku),2011-11-02,08:00～08:59,0.0582,0.0526,0.0555,
新宿 (Shinjuku),2011-11-02,07:00～07:59,0.0577,0.0533,0.0557,
新宿 (Shinjuku),2011-11-02,06:00～06:59,0.0579,0.0523,0.0552,
新宿 (Shinjuku),2011-11-02,05:00～05:59,0.0579,0.0521,0.0553,
新宿 (Shinjuku),2011-11-02,04:00～04:59,0.0577,0.0519,0.0551,
新宿 (Shinjuku),2011-11-02,03:00～03:59,0.0584,0.0527,0.0549,
新宿 (Shinjuku),2011-11-02,02:00～02:59,0.0576,0.0520,0.0548,
新宿 (Shinjuku),2011-11-02,01:00～01:59,0.0574,0.0520,0.0550,
新宿 (Shinjuku),2011-11-02,00:00～00:59,0.0569,0.0519,0.0543,
新宿 (Shinjuku),2011-11-01,23:00～23:59,0.0562,0.0516,0.0539,
新宿 (Shinjuku),2011-11-01,22:00～22:59,0.0571,0.0523,0.0543,
新宿 (Shinjuku),2011-11-01,21:00～21:59,0.0574,0.0518,0.0544,
新宿 (Shinjuku),2011-11-01,20:00～20:59,0.0568,0.0520,0.0542,
新宿 (Shinjuku),2011-11-01,19:00～19:59,0.0569,0.0520,0.0545,
新宿 (Shinjuku),2011-11-01,18:00～18:59,0.0572,0.0525,0.0546,
新宿 (Shinjuku),2011-11-01,17:00～17:59,0.0575,0.0516,0.0545,
新宿 (Shinjuku),2011-11-01,16:00～16:59,0.0571,0.0515,0.0542,
新宿 (Shinjuku),2011-11-01,15:00～15:59,0.0565,0.0518,0.0542,
新宿 (Shinjuku),2011-11-01,14:00～14:59,0.0565,0.0520,0.0543,
新宿 (Shinjuku),2011-11-01,13:00～13:59,0.0572,0.0521,0.0545,
新宿 (Shinjuku),2011-11-01,12:00～12:59,0.0566,0.0522,0.0547,
新宿 (Shinjuku),2011-11-01,11:00～11:59,0.0583,0.0523,0.0552,
新宿 (Shinjuku),2011-11-01,10:00～10:59,0.0580,0.0525,0.0553,
新宿 (Shinjuku),2011-11-01,09:00～09:59,0.0582,0.0531,0.0552,
新宿 (Shinjuku),2011-11-01,08:00～08:59,0.0583,0.0531,0.0553,
新宿 (Shinjuku),2011-11-01,07:00～07:59,0.0583,0.0523,0.0552,
新宿 (Shinjuku),2011-11-01,06:00～06:59,0.0578,0.0516,0.0550,
新宿 (Shinjuku),2011-11-01,05:00～05:59,0.0583,0.0519,0.0545,
新宿 (Shinjuku),2011-11-01,04:00～04:59,0.0569,0.0510,0.0545,
新宿 (Shinjuku),2011-11-01,03:00～03:59,0.0581,0.0526,0.0550,
新宿 (Shinjuku),2011-11-01,02:00～02:59,0.0569,0.0509,0.0546,
新宿 (Shinjuku),2011-11-01,01:00～01:59,0.0584,0.0531,0.0552,
新宿 (Shinjuku),2011-11-01,00:00～00:59,0.0569,0.0523,0.0548,
新宿 (Shinjuku),2011-10-31,23:00～23:59,0.0576,0.0520,0.0545,
新宿 (Shinjuku),2011-10-31,22:00～22:59,0.0572,0.0515,0.0544,
新宿 (Shinjuku),2011-10-31,21:00～21:59,0.0575,0.0513,0.0549,
新宿 (Shinjuku),2011-10-31,20:00～20:59,0.0576,0.0520,0.0547,
新宿 (Shinjuku),2011-10-31,19:00～19:59,0.0573,0.0524,0.0547,
新宿 (Shinjuku),2011-10-31,18:00～18:59,0.0576,0.0518,0.0546,
新宿 (Shinjuku),2011-10-31,17:00～17:59,0.0571,0.0517,0.0545,
新宿 (Shinjuku),2011-10-31,16:00～16:59,0.0570,0.0524,0.0549,
新宿 (Shinjuku),2011-10-31,15:00～15:59,0.0577,0.0522,0.0549,
新宿 (Shinjuku),2011-10-31,14:00～14:59,0.0565,0.0520,0.0547,
新宿 (Shinjuku),2011-10-31,13:00～13:59,0.0590,0.0522,0.0553,
新宿 (Shinjuku),2011-10-31,12:00～12:59,0.0589,0.0537,0.0556,
新宿 (Shinjuku),2011-10-31,11:00～11:59,0.0583,0.0515,0.0557,
新宿 (Shinjuku),2011-10-31,10:00～10:59,0.0592,0.0534,0.0567,
新宿 (Shinjuku),2011-10-31,09:00～09:59,0.0590,0.0534,0.0564,
新宿 (Shinjuku),2011-10-31,08:00～08:59,0.0585,0.0532,0.0562,
新宿 (Shinjuku),2011-10-31,07:00～07:59,0.0588,0.0525,0.0558,
新宿 (Shinjuku),2011-10-31,06:00～06:59,0.0598,0.0520,0.0558,
新宿 (Shinjuku),2011-10-31,05:00～05:59,0.0576,0.0532,0.0555,
新宿 (Shinjuku),2011-10-31,04:00～04:59,0.0581,0.0522,0.0560,
新宿 (Shinjuku),2011-10-31,03:00～03:59,0.0588,0.0532,0.0561,
新宿 (Shinjuku),2011-10-31,02:00～02:59,0.0592,0.0534,0.0561,
新宿 (Shinjuku),2011-10-31,01:00～01:59,0.0581,0.0525,0.0558,
新宿 (Shinjuku),2011-10-31,00:00～00:59,0.0578,0.0527,0.0554,
